Location: ????????
(55.6189°N, 38.3031°E)
Time: 12:53:40
(UTC+00:00)

CZ-2C R/B - Pass Details

Date: 15 November 2019
Orbit: 667 x 785 km, 98.1° (Epoch: 06 December)

Event Time Altitude Azimuth Distance (km) Brightness Sun altitude
Rises 01:21:18 0° 19° (NNE) 3,215 6.1 -30.5°
Reaches altitude 10° 01:23:48 10° 27° (NNE) 2,267 5.4 -30.2°
Maximum altitude 01:28:26 38° 96° (E) 1,109 3.7 -29.5°
Drops below altitude 10° 01:32:53 10° 164° (SSE) 2,181 4.9 -28.9°
Enters shadow 01:33:19 - 166° (SSE) 2,340 5.0 -28.8°
